This demonstration page uses our WeatherBlox Daily Observations layout. Learn more.

Left ArrowRight Arrow

Hourly Observations for November 29, 2015

Temp ( °F °C ) Dew Point ( °F °C ) Humidity (%) Winds ( mph kmh ) Pressure ( in mb ) Visibility ( mi km ) Precip ( " mm )
12:53 am 00:53 Clear 4 -15.6 1 -17.2 88 88 WNW 7 11 30.36 1028 10 16 0.00 0.00
1:53 am 01:53 Clear 5 -15 2 -16.7 87 87 WSW 6 9 30.35 1028 10 16 0.00 0.00
2:53 am 02:53 Clear 4 -15.6 1 -17.2 88 88 WNW 6 9 30.35 1028 10 16 0.00 0.00
3:53 am 03:53 Clear 4 -15.6 1 -17.2 88 88 W 5 7 30.34 1028 10 16 0.00 0.00
4:53 am 04:53 Clear 4 -15.6 1 -17.2 88 88 W 6 9 30.35 1028 10 16 0.00 0.00
5:53 am 05:53 Clear 2 -16.7 -1 -18.3 88 88 W 6 9 30.35 1028 10 16 0.00 0.00
6:53 am 06:53 Clear 3 -16.1 -1 -18.3 83 83 W 6 9 30.36 1028 10 16 0.00 0.00
7:53 am 07:53 Sunny 1 -17.2 -2 -18.9 87 87 W 6 9 30.36 1028 10 16 0.00 0.00
8:53 am 08:53 Sunny 6 -14.4 2 -16.7 83 83 W 6 9 30.36 1028 10 16 0.00 0.00
9:53 am 09:53 Sunny 12 -11.1 7 -13.9 80 80 WSW 7 11 30.34 1027 10 16 0.00 0.00
10:53 am 10:53 Sunny 19 -7.2 11 -11.7 71 71 SW 7 11 30.32 1027 10 16 0.00 0.00
11:53 am 11:53 Sunny 23 -5 13 -10.6 65 65 WSW 14 22 30.28 1025 10 16 0.00 0.00
12:53 pm 12:53 Sunny 25 -3.9 14 -10 63 63 W 10 17 30.26 1025 10 16 0.00 0.00
1:53 pm 13:53 Sunny 25 -3.9 14 -10 63 63 WSW 10 17 30.24 1024 10 16 0.00 0.00
2:53 pm 14:53 Sunny 24 -4.4 15 -9.4 68 68 SW 8 13 30.22 1023 10 16 0.00 0.00
3:53 pm 15:53 Sunny 21 -6.1 13 -10.6 71 71 WSW 8 13 30.22 1023 10 16 0.00 0.00
4:53 pm 16:53 Clear 16 -8.9 11 -11.7 80 80 W 6 9 30.22 1024 10 16 0.00 0.00
5:53 pm 17:53 Clear 16 -8.9 11 -11.7 80 80 WSW 3 6 30.23 1024 10 16 0.00 0.00
6:53 pm 18:53 Clear 12 -11.1 8 -13.3 84 84 W 6 9 30.23 1024 10 16 0.00 0.00
7:53 pm 19:53 Clear 9 -12.8 6 -14.4 88 88 W 6 9 30.23 1024 10 16 0.00 0.00
8:53 pm 20:53 Clear 8 -13.3 5 -15 87 87 W 5 7 30.22 1023 10 16 0.00 0.00
9:53 pm 21:53 Clear 5 -15 2 -16.7 87 87 W 6 9 30.21 1023 10 16 0.00 0.00
10:53 pm 22:53 Clear 3 -16.1 1 -17.2 91 91 WSW 6 9 30.20 1023 10 16 0.00 0.00
11:53 pm 23:53 Clear 2 -16.7 -1 -18.3 88 88 WSW 7 11 30.18 1022 10 16 0.00 0.00

Powered by AerisWeather